| time (UTC) | temp F | wind direction | speed knots | gust knots | rain 1hr in | rain 24hr in | rain mn in | humidity % | barometer mb |
| 20260505111522 | 37 | 354 | 1.7 | 5.2 | 0.00 | 0.00 | 0.03 | 86 | 1013.8 |
| 20260505110842 | 38 | 67 | 0.9 | 2.6 | 0.00 | 0.00 | 0.03 | 88 | 1013.8 |
| 20260505110202 | 38 | 4 | 1.7 | 3.5 | 0.00 | 0.00 | 0.03 | 85 | 1013.8 |
| 20260505102202 | 37 | 291 | 3.5 | 5.2 | 0.00 | 0.00 | 0.03 | 91 | 1013.8 |
| 20260505100842 | 37 | 274 | 2.6 | 7.0 | 0.00 | 0.00 | 0.03 | 89 | 1013.8 |
| 20260505100202 | 37 | 278 | 4.3 | 7.0 | 0.00 | 0.00 | 0.03 | 89 | 1013.8 |
| 20260505095522 | 38 | 298 | 4.3 | 7.0 | 0.00 | 0.00 | 0.03 | 88 | 1013.8 |
| 20260505094842 | 38 | 259 | 2.6 | 6.1 | 0.00 | 0.00 | 0.02 | 88 | 1013.8 |
| 20260505094202 | 38 | 312 | 4.3 | 6.1 | 0.00 | 0.00 | 0.02 | 86 | 1013.8 |
| 20260505093522 | 38 | 208 | 2.6 | 7.0 | 0.00 | 0.00 | 0.02 | 88 | 1013.8 |
| 20260505092842 | 38 | 211 | 2.6 | 7.8 | 0.00 | 0.00 | 0.02 | 88 | 1013.8 |
| 20260505091522 | 38 | 199 | 5.2 | 7.0 | 0.00 | 0.00 | 0.02 | 87 | 1013.8 |
| 20260505090842 | 38 | 191 | 3.5 | 7.0 | 0.00 | 0.00 | 0.02 | 87 | 1013.8 |
| 20260505090202 | 38 | 204 | 3.5 | 6.1 | 0.00 | 0.00 | 0.02 | 85 | 1013.8 |
| 20260505085522 | 39 | 203 | 2.6 | 4.3 | 0.00 | 0.00 | 0.02 | 83 | 1013.8 |
| 20260505084202 | 39 | 191 | 1.7 | 3.5 | 0.00 | 0.00 | 0.02 | 81 | 1013.8 |
| 20260505083522 | 39 | 258 | 0.9 | 3.5 | 0.00 | 0.00 | 0.02 | 82 | 1013.8 |
| 20260505081522 | 39 | 236 | 1.7 | 4.3 | 0.00 | 0.00 | 0.02 | 80 | 1013.8 |
| 20260505080841 | 39 | 225 | 0.9 | 1.7 | 0.00 | 0.00 | 0.02 | 79 | 1013.8 |
| 20260505075521 | 39 | 205 | 1.7 | 4.3 | 0.00 | 0.00 | 0.02 | 80 | 1013.8 |
| 20260505074201 | 39 | 126 | 0.9 | 3.5 | 0.00 | 0.00 | 0.02 | 82 | 1013.8 |
| 20260505072841 | 39 | 145 | 1.7 | 5.2 | 0.00 | 0.00 | 0.02 | 82 | 1013.8 |
| 20260505071521 | 38 | 122 | 2.6 | 7.0 | 0.00 | 0.00 | 0.02 | 85 | 1013.4 |
| 20260505070841 | 38 | 114 | 3.5 | 7.0 | 0.00 | 0.00 | 0.02 | 85 | 1013.4 |
| 20260505070201 | 38 | 102 | 4.3 | 7.0 | 0.00 | 0.00 | 0.02 | 84 | 1013.8 |
| 20260505065521 | 38 | 103 | 4.3 | 7.0 | 0.00 | 0.00 | 0.02 | 84 | 1013.8 |
| 20260505064201 | 39 | 106 | 2.6 | 7.8 | 0.00 | 0.00 | 0.02 | 84 | 1013.8 |
| 20260505063521 | 39 | 100 | 6.1 | 7.8 | 0.00 | 0.00 | 0.01 | 80 | 1013.8 |
| 20260505062841 | 39 | 95 | 5.2 | 7.0 | 0.00 | 0.00 | 0.00 | 81 | 1013.8 |
| 20260505061521 | 39 | 84 | 3.5 | 9.6 | 0.00 | 0.00 | 0.00 | 82 | 1013.8 |
| 20260505060841 | 40 | 102 | 6.1 | 9.6 | 0.00 | 0.00 | 0.00 | 80 | 1013.8 |
| 20260505060201 | 40 | 89 | 3.5 | 6.1 | 0.00 | 0.00 | 0.00 | 77 | 1013.8 |
| 20260505055521 | 40 | 73 | 3.5 | 5.2 | 0.00 | 0.00 | 0.00 | 77 | 1013.8 |
| 20260505054841 | 39 | 66 | 3.5 | 7.8 | 0.00 | 0.00 | 0.00 | 78 | 1014.2 |
| 20260505054201 | 39 | 48 | 5.2 | 7.8 | 0.00 | 0.00 | 0.00 | 78 | 1014.2 |
| 20260505053521 | 39 | 42 | 4.3 | 9.6 | 0.00 | 0.00 | 0.00 | 77 | 1014.2 |
| 20260505052841 | 40 | 39 | 5.2 | 11.3 | 0.00 | 0.00 | 0.00 | 76 | 1014.2 |
| 20260505052201 | 40 | 34 | 6.1 | 9.6 | 0.00 | 0.00 | 0.00 | 76 | 1014.2 |
| 20260505051521 | 40 | 48 | 4.3 | 11.3 | 0.00 | 0.00 | 0.00 | 75 | 1014.2 |
| 20260505050841 | 40 | 43 | 4.3 | 11.3 | 0.00 | 0.00 | 0.00 | 74 | 1013.8 |
| 20260505041521 | 44 | 60 | 5.2 | 9.6 | 0.00 | 0.00 | 0.00 | 54 | 1013.8 |
| 20260505040841 | 44 | 51 | 5.2 | 9.6 | 0.00 | 0.00 | 0.00 | 54 | 1013.8 |
| 20260505040201 | 44 | 62 | 6.1 | 11.3 | 0.00 | 0.00 | 0.00 | 53 | 1013.8 |
| 20260505035521 | 45 | 48 | 6.1 | 11.3 | 0.00 | 0.00 | 0.00 | 52 | 1013.8 |
| 20260505034841 | 45 | 58 | 5.2 | 12.2 | 0.00 | 0.00 | 0.00 | 50 | 1013.8 |
| 20260505034201 | 45 | 43 | 7.8 | 12.2 | 0.00 | 0.00 | 0.00 | 49 | 1013.4 |
| 20260505033521 | 45 | 42 | 4.3 | 9.6 | 0.00 | 0.00 | 0.00 | 50 | 1013.4 |
| 20260505032841 | 45 | 45 | 5.2 | 10.4 | 0.00 | 0.00 | 0.00 | 49 | 1013.4 |
| 20260505032201 | 45 | 45 | 5.2 | 13.9 | 0.00 | 0.00 | 0.00 | 49 | 1013.4 |
| 20260505031521 | 45 | 41 | 9.6 | 13.9 | 0.00 | 0.00 | 0.00 | 48 | 1013.0 |
| 20260505030841 | 45 | 41 | 6.1 | 13.9 | 0.00 | 0.00 | 0.00 | 49 | 1013.0 |
| 20260505025521 | 46 | 40 | 8.7 | 13.9 | 0.00 | 0.00 | 0.00 | 48 | 1012.6 |
| 20260505024201 | 46 | 41 | 5.2 | 14.8 | 0.00 | 0.00 | 0.00 | 47 | 1012.6 |
| 20260505023521 | 46 | 32 | 6.1 | 14.8 | 0.00 | 0.00 | 0.00 | 47 | 1012.6 |
| 20260505022841 | 46 | 38 | 5.2 | 13.0 | 0.00 | 0.00 | 0.00 | 47 | 1012.6 |
| 20260505022201 | 46 | 39 | 7.0 | 12.2 | 0.00 | 0.00 | 0.00 | 46 | 1012.2 |
| 20260505021521 | 47 | 46 | 5.2 | 16.5 | 0.00 | 0.00 | 0.00 | 46 | 1012.2 |
| 20260505020841 | 47 | 37 | 5.2 | 15.6 | 0.00 | 0.00 | 0.00 | 46 | 1011.8 |
| 20260505020201 | 47 | 36 | 7.8 | 15.6 | 0.00 | 0.00 | 0.00 | 46 | 1011.8 |
| 20260505015521 | 48 | 34 | 8.7 | 14.8 | 0.00 | 0.00 | 0.00 | 46 | 1011.8 |
| 20260505014841 | 48 | 41 | 8.7 | 14.8 | 0.00 | 0.00 | 0.00 | 45 | 1011.8 |
| 20260505014201 | 48 | 41 | 7.8 | 14.8 | 0.00 | 0.00 | 0.00 | 45 | 1011.8 |
| 20260505013521 | 48 | 45 | 7.8 | 15.6 | 0.00 | 0.00 | 0.00 | 44 | 1011.4 |
| 20260505012841 | 49 | 48 | 7.0 | 15.6 | 0.00 | 0.00 | 0.00 | 43 | 1011.4 |
| 20260505012201 | 50 | 40 | 7.8 | 15.6 | 0.00 | 0.00 | 0.00 | 42 | 1011.0 |
| 20260505011521 | 51 | 40 | 7.0 | 14.8 | 0.00 | 0.00 | 0.00 | 42 | 1011.0 |
| 20260505010841 | 51 | 37 | 7.0 | 15.6 | 0.00 | 0.00 | 0.00 | 43 | 1011.0 |
| 20260505010201 | 52 | 35 | 7.0 | 14.8 | 0.00 | 0.00 | 0.00 | 42 | 1011.0 |
| 20260505005521 | 52 | 38 | 5.2 | 14.8 | 0.00 | 0.00 | 0.00 | 42 | 1010.6 |
| 20260505004841 | 52 | 43 | 6.1 | 14.8 | 0.00 | 0.00 | 0.00 | 42 | 1010.6 |
| 20260505004201 | 53 | 18 | 7.8 | 15.6 | 0.00 | 0.00 | 0.00 | 40 | 1010.6 |
| 20260505003521 | 53 | 33 | 6.1 | 15.6 | 0.00 | 0.00 | 0.00 | 41 | 1010.3 |
| 20260505002841 | 53 | 34 | 6.1 | 14.8 | 0.00 | 0.00 | 0.00 | 41 | 1010.3 |
| 20260505002201 | 54 | 29 | 6.1 | 13.9 | 0.00 | 0.00 | 0.00 | 40 | 1010.3 |
| 20260505000201 | 56 | 49 | 4.3 | 10.4 | 0.00 | 0.00 | 0.00 | 38 | 1010.3 |
| 20260504235521 | 56 | 26 | 5.2 | 12.2 | 0.00 | 0.00 | 0.00 | 36 | 1010.3 |
| 20260504234841 | 56 | 39 | 6.1 | 12.2 | 0.00 | 0.00 | 0.00 | 36 | 1010.3 |
| 20260504234201 | 57 | 359 | 7.0 | 14.8 | 0.00 | 0.00 | 0.00 | 36 | 1010.3 |
| 20260504233521 | 56 | 14 | 7.0 | 14.8 | 0.00 | 0.00 | 0.00 | 37 | 1010.3 |
| 20260504232841 | 57 | 33 | 4.3 | 15.6 | 0.00 | 0.00 | 0.00 | 36 | 1009.9 |
| 20260504231521 | 57 | 9 | 5.2 | 12.2 | 0.00 | 0.00 | 0.00 | 35 | 1009.9 |
| 20260504230841 | 57 | 6 | 7.0 | 14.8 | 0.00 | 0.00 | 0.00 | 35 | 1009.9 |
| 20260504230201 | 57 | 338 | 7.0 | 15.6 | 0.00 | 0.00 | 0.00 | 36 | 1009.9 |
| 20260504225521 | 58 | 9 | 7.8 | 14.8 | 0.00 | 0.00 | 0.00 | 34 | 1009.5 |
| 20260504224841 | 60 | 32 | 6.1 | 13.9 | 0.00 | 0.00 | 0.00 | 33 | 1009.5 |
| 20260504222841 | 59 | 10 | 5.2 | 12.2 | 0.00 | 0.00 | 0.00 | 34 | 1009.5 |
| 20260504222201 | 58 | 31 | 6.1 | 13.9 | 0.00 | 0.00 | 0.00 | 35 | 1009.1 |
| 20260504221521 | 58 | 41 | 6.1 | 13.9 | 0.00 | 0.00 | 0.00 | 34 | 1009.5 |
| 20260504220841 | 59 | 1 | 6.1 | 12.2 | 0.00 | 0.00 | 0.00 | 34 | 1009.1 |
| 20260504220201 | 59 | 31 | 6.1 | 13.9 | 0.00 | 0.00 | 0.00 | 34 | 1009.5 |
| 20260504215521 | 59 | 29 | 6.1 | 11.3 | 0.00 | 0.00 | 0.00 | 33 | 1009.1 |
| 20260504214841 | 58 | 356 | 4.3 | 13.9 | 0.00 | 0.00 | 0.00 | 35 | 1009.5 |
| 20260504214201 | 58 | 330 | 7.8 | 14.8 | 0.00 | 0.00 | 0.00 | 35 | 1009.5 |
| 20260504213521 | 58 | 354 | 4.3 | 13.9 | 0.00 | 0.00 | 0.00 | 35 | 1009.9 |
| 20260504212841 | 58 | 46 | 5.2 | 13.0 | 0.00 | 0.00 | 0.00 | 35 | 1009.9 |
| 20260504212201 | 58 | 333 | 7.0 | 13.9 | 0.00 | 0.00 | 0.00 | 35 | 1009.9 |
| 20260504211521 | 57 | 42 | 7.0 | 13.9 | 0.00 | 0.00 | 0.00 | 36 | 1009.9 |
| 20260504210841 | 59 | 25 | 6.1 | 11.3 | 0.00 | 0.00 | 0.00 | 35 | 1009.9 |
| 20260504210201 | 58 | 329 | 3.5 | 8.7 | 0.00 | 0.00 | 0.00 | 34 | 1009.9 |
| 20260504205521 | 58 | 358 | 3.5 | 13.9 | 0.00 | 0.00 | 0.00 | 34 | 1009.9 |
| 20260504204841 | 59 | 356 | 7.0 | 13.9 | 0.00 | 0.00 | 0.00 | 34 | 1010.3 |
| 20260504203521 | 58 | 291 | 3.5 | 11.3 | 0.00 | 0.00 | 0.00 | 34 | 1010.3 |
| 20260504202841 | 58 | 334 | 4.3 | 12.2 | 0.00 | 0.00 | 0.00 | 34 | 1010.6 |
| 20260504202201 | 59 | 48 | 3.5 | 12.2 | 0.00 | 0.00 | 0.00 | 33 | 1010.6 |
| 20260504201521 | 57 | 316 | 6.1 | 12.2 | 0.00 | 0.00 | 0.00 | 35 | 1010.6 |
| 20260504200841 | 57 | 35 | 5.2 | 11.3 | 0.00 | 0.00 | 0.00 | 35 | 1010.6 |
| 20260504195521 | 57 | 64 | 5.2 | 13.0 | 0.00 | 0.00 | 0.00 | 36 | 1010.6 |
| 20260504194202 | 57 | 43 | 5.2 | 12.2 | 0.00 | 0.00 | 0.00 | 35 | 1011.0 |
| 20260504192841 | 56 | 41 | 5.2 | 13.9 | 0.00 | 0.00 | 0.00 | 35 | 1011.0 |
| 20260504190841 | 56 | 34 | 7.0 | 10.4 | 0.00 | 0.00 | 0.00 | 34 | 1011.0 |
| 20260504190201 | 56 | 77 | 7.0 | 10.4 | 0.00 | 0.00 | 0.00 | 35 | 1011.0 |
| 20260504185521 | 56 | 125 | 4.3 | 10.4 | 0.00 | 0.00 | 0.00 | 35 | 1011.0 |
| 20260504184841 | 55 | 85 | 5.2 | 13.0 | 0.00 | 0.00 | 0.00 | 36 | 1011.8 |
| 20260504184201 | 56 | 14 | 6.1 | 13.0 | 0.00 | 0.00 | 0.00 | 35 | 1011.4 |
| 20260504183521 | 56 | 352 | 2.6 | 11.3 | 0.00 | 0.00 | 0.00 | 36 | 1011.8 |
| 20260504182201 | 55 | 48 | 5.2 | 9.6 | 0.00 | 0.00 | 0.00 | 36 | 1011.8 |
| 20260504181521 | 56 | 32 | 4.3 | 10.4 | 0.00 | 0.00 | 0.00 | 37 | 1011.8 |
| 20260504180841 | 54 | 87 | 6.1 | 12.2 | 0.00 | 0.00 | 0.00 | 38 | 1011.8 |
| 20260504180201 | 54 | 81 | 7.8 | 12.2 | 0.00 | 0.00 | 0.00 | 39 | 1011.8 |
| 20260504175521 | 53 | 65 | 5.2 | 11.3 | 0.00 | 0.00 | 0.00 | 39 | 1012.2 |
| 20260504174841 | 54 | 44 | 5.2 | 12.2 | 0.00 | 0.00 | 0.00 | 38 | 1012.2 |
| 20260504174201 | 53 | 47 | 7.8 | 13.9 | 0.00 | 0.00 | 0.00 | 39 | 1012.2 |
| 20260504172841 | 53 | 102 | 0.9 | 12.2 | 0.00 | 0.00 | 0.00 | 40 | 1012.2 |
| 20260504171521 | 53 | 78 | 7.0 | 13.0 | 0.00 | 0.00 | 0.00 | 40 | 1012.6 |
| 20260504170841 | 53 | 19 | 3.5 | 9.6 | 0.00 | 0.00 | 0.00 | 40 | 1012.6 |
| 20260504170201 | 53 | 33 | 5.2 | 9.6 | 0.00 | 0.00 | 0.00 | 40 | 1012.6 |
| 20260504160201 | 50 | 39 | 6.1 | 13.9 | 0.00 | 0.00 | 0.00 | 44 | 1012.6 |
| 20260504150841 | 50 | 33 | 4.3 | 14.8 | 0.00 | 0.00 | 0.00 | 47 | 1012.6 |
| 20260504150201 | 50 | 2 | 6.1 | 16.5 | 0.00 | 0.00 | 0.00 | 47 | 1012.6 |
| 20260504140201 | 51 | 320 | 9.6 | 13.9 | 0.00 | 0.00 | 0.00 | 46 | 1011.8 |
| 20260504130201 | 42 | 206 | 5.2 | 9.6 | 0.00 | 0.00 | 0.00 | 61 | 1009.1 |